User: anonymous   Login
Location: Unspecified
(0.0000°N, 0.0000°E)
Time: 03:12:08
(UTC+02:00)
Language:

ARIANE DEB (SPELDA) - Orbit

View from above orbital plane
View from above orbital plane
View from above satellite
View from above satellite

Ground track
Ground track

The orbit data is extracted from the following two-line orbital elements,

1 27402U 02015D   16241.51677875 +.00000353 +00000-0 +80411-3 0  9991
2 27402 003.3715 252.9710 7094456 061.2600 351.2886 02.48332893126804
Epoch (UTC): 28 August 2016 12:24:09
Eccentricity: 0.7094456
inclination: 3.3715°
perigee height: 314 km
apogee height: 32998 km
right ascension of ascending node: 252.9710°
argument of perigee: 61.2600°
revolutions per day: 2.48332893
mean anomaly at epoch: 351.2886°
orbit number at epoch: 12680

The dashed part of the orbit path shows where the satellite is in the earth's shadow,  

DLR